EZY19ZA LEBL-EGPF

Flight info

Callsign EZY19ZA
Flight time 2h 15m
Altitude 32000
Route NATPI DCT EVNAM/N0449F380 DCT TUPAR UY120 AKIKI UN867 VASUX DCT TNT UN57 POL UN601 RIBEL DCT ASLIB
Aircraft A319/M-SDE3FGHIRWY/LB1

Departure

Time 2026-05-05 06:51
Airport Josep Tarradellas Barcelona-El Prat Airport (LEBL)

Arrival

Time 2026-05-05 09:06
Airport Glasgow Airport (EGPF)
Time Latitude Longitude Altitude Speed Heading
2026-05-05 06:17 41.30408 2.08313 22 ft 0 kts 274°
2026-05-05 06:39 41.30407 2.08320 22 ft 2 kts 274°
2026-05-05 06:39 41.30406 2.08340 22 ft 2 kts 274°
2026-05-05 06:40 41.30405 2.08353 22 ft 1 kts 275°
2026-05-05 06:40 41.30408 2.08372 22 ft 2 kts 238°
2026-05-05 06:40 41.30419 2.08387 22 ft 2 kts 205°
2026-05-05 06:40 41.30425 2.08390 22 ft 0 kts 190°
2026-05-05 06:41 41.30410 2.08384 22 ft 2 kts 193°
2026-05-05 06:41 41.30399 2.08382 22 ft 4 kts 185°
2026-05-05 06:41 41.30374 2.08388 22 ft 1 kts 156°
2026-05-05 06:41 41.30372 2.08390 22 ft 0 kts 157°
2026-05-05 06:43 41.30370 2.08391 22 ft 1 kts 157°
2026-05-05 06:43 41.30357 2.08398 22 ft 3 kts 157°
2026-05-05 06:43 41.30331 2.08413 22 ft 4 kts 156°
2026-05-05 06:44 41.30288 2.08439 22 ft 6 kts 155°
2026-05-05 06:44 41.30230 2.08473 22 ft 8 kts 155°
2026-05-05 06:44 41.30165 2.08456 22 ft 10 kts 240°
2026-05-05 06:44 41.30129 2.08351 22 ft 11 kts 245°
2026-05-05 06:45 41.30096 2.08264 22 ft 7 kts 225°
2026-05-05 06:45 41.30030 2.08271 22 ft 9 kts 156°
2026-05-05 06:45 41.29954 2.08316 22 ft 11 kts 155°
2026-05-05 06:45 41.29862 2.08372 22 ft 12 kts 155°
2026-05-05 06:46 41.29761 2.08433 22 ft 14 kts 155°
2026-05-05 06:46 41.29652 2.08499 22 ft 15 kts 155°
2026-05-05 06:46 41.29538 2.08567 22 ft 16 kts 155°
2026-05-05 06:46 41.29415 2.08641 22 ft 16 kts 155°
2026-05-05 06:47 41.29288 2.08717 22 ft 17 kts 155°
2026-05-05 06:47 41.29155 2.08798 22 ft 18 kts 155°
2026-05-05 06:47 41.29017 2.08881 22 ft 18 kts 155°
2026-05-05 06:47 41.28949 2.08936 22 ft 9 kts 118°
2026-05-05 06:48 41.28966 2.09035 22 ft 11 kts 65°
2026-05-05 06:48 41.29005 2.09146 22 ft 12 kts 65°
2026-05-05 06:48 41.29046 2.09267 22 ft 13 kts 65°
2026-05-05 06:48 41.29090 2.09395 22 ft 14 kts 65°
2026-05-05 06:49 41.29136 2.09531 22 ft 14 kts 65°
2026-05-05 06:49 41.29184 2.09671 22 ft 15 kts 65°
2026-05-05 06:49 41.29236 2.09821 22 ft 15 kts 65°
2026-05-05 06:49 41.29269 2.09926 22 ft 9 kts 85°
2026-05-05 06:50 41.29216 2.09981 22 ft 10 kts 195°
2026-05-05 06:50 41.29143 2.09916 22 ft 11 kts 205°
2026-05-05 06:50 41.29076 2.09878 22 ft 8 kts 216°
2026-05-05 06:50 41.29041 2.09798 22 ft 9 kts 246°
2026-05-05 06:51 41.28925 2.09454 22 ft 76 kts 246°
2026-05-05 06:51 41.28539 2.08336 23 ft 151 kts 246°
2026-05-05 06:51 41.28032 2.06802 628 ft 161 kts 250°
2026-05-05 06:51 41.27335 2.05478 1405 ft 166 kts 208°
2026-05-05 06:52 41.26215 2.05369 2067 ft 172 kts 160°
2026-05-05 06:52 41.25077 2.06159 2616 ft 187 kts 149°
2026-05-05 06:52 41.23807 2.06848 3085 ft 205 kts 176°
2026-05-05 06:52 41.22366 2.06463 3650 ft 219 kts 207°
2026-05-05 06:53 41.21042 2.05500 4538 ft 220 kts 209°
2026-05-05 06:53 41.19698 2.04582 5413 ft 221 kts 206°
2026-05-05 06:53 41.18301 2.03704 6236 ft 225 kts 212°
2026-05-05 06:53 41.17216 2.02207 6809 ft 238 kts 244°
2026-05-05 06:54 41.16911 2.00063 7612 ft 245 kts 275°
2026-05-05 06:54 41.17508 1.97967 8469 ft 250 kts 300°
2026-05-05 06:54 41.18528 1.96003 9352 ft 253 kts 299°
2026-05-05 06:54 41.19537 1.94008 10163 ft 255 kts 298°
2026-05-05 06:55 41.20656 1.91743 11087 ft 257 kts 298°
2026-05-05 06:55 41.21770 1.89475 11966 ft 260 kts 298°
2026-05-05 06:55 41.22964 1.87217 12828 ft 264 kts 303°
2026-05-05 06:55 41.24401 1.85069 13582 ft 273 kts 309°
2026-05-05 06:56 41.25951 1.82993 14013 ft 291 kts 310°
2026-05-05 06:56 41.27660 1.80733 14390 ft 309 kts 310°
2026-05-05 06:56 41.29488 1.78314 14762 ft 327 kts 310°
2026-05-05 06:56 41.31325 1.75885 15353 ft 336 kts 309°
2026-05-05 06:57 41.33114 1.73518 16062 ft 339 kts 309°
2026-05-05 06:57 41.35035 1.70969 16820 ft 342 kts 309°
2026-05-05 06:57 41.36965 1.68403 17545 ft 345 kts 309°
2026-05-05 06:57 41.38930 1.65783 18276 ft 347 kts 309°
2026-05-05 06:58 41.40860 1.63210 18948 ft 350 kts 308°
2026-05-05 06:58 41.42911 1.60473 19657 ft 353 kts 308°
2026-05-05 06:58 41.44932 1.57771 20344 ft 355 kts 308°
2026-05-05 06:58 41.46937 1.55088 20984 ft 358 kts 307°
2026-05-05 06:59 41.49130 1.52424 21655 ft 368 kts 317°
2026-05-05 06:59 41.51735 1.50631 22382 ft 382 kts 333°
2026-05-05 06:59 41.54710 1.49706 22963 ft 395 kts 342°
2026-05-05 06:59 41.57722 1.49050 23362 ft 403 kts 343°
2026-05-05 07:00 41.60841 1.48405 23857 ft 407 kts 343°
2026-05-05 07:00 41.63967 1.47752 24340 ft 410 kts 342°
2026-05-05 07:00 41.67133 1.47075 24838 ft 413 kts 342°
2026-05-05 07:00 41.70372 1.46373 25322 ft 416 kts 342°
2026-05-05 07:01 41.73585 1.45671 25776 ft 419 kts 342°
2026-05-05 07:01 41.76888 1.44946 26215 ft 422 kts 342°
2026-05-05 07:01 41.80115 1.44234 26585 ft 426 kts 341°
2026-05-05 07:01 41.83459 1.43497 27028 ft 428 kts 341°
2026-05-05 07:02 41.86863 1.42745 27433 ft 431 kts 341°
2026-05-05 07:02 41.90211 1.42005 27811 ft 434 kts 341°
2026-05-05 07:02 41.93604 1.41253 28199 ft 436 kts 341°
2026-05-05 07:02 41.97004 1.40496 28527 ft 440 kts 341°
2026-05-05 07:03 42.00467 1.39727 28904 ft 442 kts 341°
2026-05-05 07:03 42.03856 1.38974 29262 ft 444 kts 341°
2026-05-05 07:03 42.07384 1.38189 29619 ft 447 kts 341°
2026-05-05 07:03 42.10806 1.37425 29919 ft 450 kts 340°
2026-05-05 07:04 42.14155 1.36678 30212 ft 452 kts 341°
2026-05-05 07:04 42.17596 1.35909 30620 ft 451 kts 341°
2026-05-05 07:04 42.21030 1.35143 31034 ft 449 kts 341°
2026-05-05 07:04 42.24280 1.34418 31422 ft 448 kts 340°
2026-05-05 07:05 42.27567 1.33684 31820 ft 447 kts 340°
2026-05-05 07:05 42.30964 1.32919 32156 ft 447 kts 341°
2026-05-05 07:05 42.34548 1.32114 32505 ft 447 kts 341°
2026-05-05 07:05 42.37983 1.31343 32871 ft 446 kts 341°
2026-05-05 07:06 42.41393 1.30577 33203 ft 446 kts 341°
2026-05-05 07:06 42.44934 1.29782 33570 ft 444 kts 341°
2026-05-05 07:06 42.48374 1.29005 33895 ft 443 kts 341°
2026-05-05 07:06 42.51702 1.28253 34163 ft 444 kts 341°
2026-05-05 07:07 42.55145 1.27471 34418 ft 444 kts 342°
2026-05-05 07:07 42.58572 1.26698 34659 ft 445 kts 342°
2026-05-05 07:07 42.62018 1.25916 34839 ft 447 kts 342°
2026-05-05 07:07 42.65319 1.25169 35050 ft 446 kts 343°
2026-05-05 07:08 42.68770 1.24385 35244 ft 447 kts 343°
2026-05-05 07:08 42.72277 1.23620 35413 ft 449 kts 345°
2026-05-05 07:08 42.75731 1.23069 35582 ft 452 kts 347°
2026-05-05 07:08 42.79221 1.22586 35769 ft 454 kts 348°
2026-05-05 07:09 42.82829 1.22103 35915 ft 455 kts 348°
2026-05-05 07:09 42.89752 1.21169 35933 ft 455 kts 348°
2026-05-05 07:10 42.96901 1.20191 35949 ft 455 kts 348°
2026-05-05 07:10 43.03891 1.19229 35954 ft 455 kts 348°
2026-05-05 07:11 43.10748 1.18283 35953 ft 455 kts 348°
2026-05-05 07:11 43.17425 1.17358 35973 ft 455 kts 348°
2026-05-05 07:12 43.24571 1.16365 35948 ft 455 kts 348°
2026-05-05 07:12 43.31447 1.15408 35958 ft 455 kts 349°
2026-05-05 07:13 43.38313 1.14449 35936 ft 455 kts 349°
2026-05-05 07:13 43.45150 1.13496 35940 ft 455 kts 349°
2026-05-05 07:14 43.52047 1.12532 35961 ft 454 kts 349°
2026-05-05 07:14 43.59225 1.10908 35962 ft 450 kts 341°
2026-05-05 07:15 43.65982 1.08021 35963 ft 445 kts 333°
2026-05-05 07:15 43.69047 1.06266 36201 ft 444 kts 332°
2026-05-05 07:15 43.72195 1.04374 36061 ft 443 kts 331°
2026-05-05 07:16 43.78558 1.00523 36038 ft 450 kts 332°
2026-05-05 07:16 43.81889 0.98512 36247 ft 450 kts 332°
2026-05-05 07:16 43.85166 0.96538 36478 ft 448 kts 332°
2026-05-05 07:16 43.88314 0.94644 36682 ft 448 kts 332°
2026-05-05 07:17 43.91481 0.92737 36843 ft 448 kts 332°
2026-05-05 07:17 43.94693 0.90800 36983 ft 448 kts 332°
2026-05-05 07:17 43.97795 0.88926 37141 ft 449 kts 332°
2026-05-05 07:17 44.00870 0.87068 37289 ft 449 kts 332°
2026-05-05 07:18 44.04071 0.85131 37443 ft 449 kts 332°
2026-05-05 07:18 44.07261 0.83197 37586 ft 449 kts 332°
2026-05-05 07:18 44.10428 0.81276 37715 ft 449 kts 333°
2026-05-05 07:18 44.13405 0.79468 37830 ft 450 kts 333°
2026-05-05 07:19 44.16274 0.77723 37939 ft 450 kts 333°
2026-05-05 07:19 44.22228 0.74099 37954 ft 450 kts 333°
2026-05-05 07:20 44.27948 0.70611 37953 ft 450 kts 333°
2026-05-05 07:20 44.33711 0.67086 37956 ft 450 kts 333°
2026-05-05 07:21 44.39487 0.63545 37950 ft 450 kts 333°
2026-05-05 07:21 44.45269 0.59994 37954 ft 451 kts 333°
2026-05-05 07:22 44.51079 0.56417 37950 ft 451 kts 333°
2026-05-05 07:22 44.56951 0.52794 37952 ft 450 kts 333°
2026-05-05 07:23 44.62719 0.49228 37946 ft 450 kts 333°
2026-05-05 07:23 44.68511 0.45640 37955 ft 450 kts 333°
2026-05-05 07:24 44.74266 0.42066 37953 ft 451 kts 333°
2026-05-05 07:24 44.80159 0.38399 37953 ft 452 kts 333°
2026-05-05 07:25 44.85923 0.34804 37947 ft 451 kts 333°
2026-05-05 07:25 44.91836 0.31108 37950 ft 451 kts 333°
2026-05-05 07:26 44.97739 0.27408 37943 ft 451 kts 333°
2026-05-05 07:26 45.03641 0.23702 37936 ft 451 kts 333°
2026-05-05 07:27 45.09388 0.20085 37929 ft 451 kts 333°
2026-05-05 07:27 45.15259 0.16383 37922 ft 452 kts 333°
2026-05-05 07:28 45.21137 0.12667 37923 ft 453 kts 333°
2026-05-05 07:28 45.26975 0.08968 37928 ft 453 kts 333°
2026-05-05 07:29 45.32759 0.05294 37921 ft 452 kts 333°
2026-05-05 07:29 45.38586 0.01584 37915 ft 452 kts 333°
2026-05-05 07:30 45.44436 -0.02149 37917 ft 452 kts 333°
2026-05-05 07:30 45.53827 -0.08156 37917 ft 453 kts 333°
2026-05-05 07:31 45.59686 -0.11917 37924 ft 453 kts 333°
2026-05-05 07:31 45.65422 -0.15605 37925 ft 453 kts 334°
2026-05-05 07:32 45.71274 -0.19379 37927 ft 453 kts 334°
2026-05-05 07:32 45.77083 -0.23131 37927 ft 454 kts 334°
2026-05-05 07:33 45.82964 -0.26941 37927 ft 453 kts 334°
2026-05-05 07:33 45.88916 -0.30805 37921 ft 453 kts 334°
2026-05-05 07:34 45.94842 -0.34661 37918 ft 454 kts 334°
2026-05-05 07:34 46.00765 -0.38525 37919 ft 453 kts 334°
2026-05-05 07:35 46.06749 -0.42437 37913 ft 453 kts 334°
2026-05-05 07:35 46.12650 -0.46303 37913 ft 453 kts 334°
2026-05-05 07:36 46.18639 -0.50237 37910 ft 453 kts 334°
2026-05-05 07:36 46.24578 -0.54149 37909 ft 453 kts 334°
2026-05-05 07:37 46.30508 -0.58062 37909 ft 454 kts 334°
2026-05-05 07:37 46.36418 -0.61974 37903 ft 453 kts 334°
2026-05-05 07:38 46.42372 -0.65924 37911 ft 453 kts 333°
2026-05-05 07:38 46.48060 -0.70000 37910 ft 453 kts 331°
2026-05-05 07:39 46.53753 -0.74180 37904 ft 453 kts 331°
2026-05-05 07:39 46.59465 -0.78370 37908 ft 454 kts 332°
2026-05-05 07:40 46.65186 -0.82573 37901 ft 454 kts 332°
2026-05-05 07:40 46.70837 -0.86730 37900 ft 453 kts 332°
2026-05-05 07:41 46.76553 -0.90944 37893 ft 453 kts 332°
2026-05-05 07:41 46.82317 -0.95206 37899 ft 453 kts 332°
2026-05-05 07:42 46.88141 -0.99418 37896 ft 453 kts 335°
2026-05-05 07:42 46.94070 -1.02637 37885 ft 454 kts 343°
2026-05-05 07:43 47.00252 -1.04682 37875 ft 455 kts 351°
2026-05-05 07:43 47.06582 -1.05699 37891 ft 456 kts 355°
2026-05-05 07:44 47.13070 -1.06530 37877 ft 455 kts 355°
2026-05-05 07:44 47.19579 -1.07391 37878 ft 454 kts 355°
2026-05-05 07:45 47.26548 -1.08334 37873 ft 454 kts 355°
2026-05-05 07:45 47.33380 -1.09265 37871 ft 454 kts 355°
2026-05-05 07:46 47.40308 -1.10214 37872 ft 454 kts 355°
2026-05-05 07:47 47.43449 -1.10644 37871 ft 453 kts 355°
2026-05-05 07:47 47.50280 -1.11581 37882 ft 453 kts 355°
2026-05-05 07:48 47.57162 -1.12535 37871 ft 452 kts 355°
2026-05-05 07:48 47.63995 -1.13486 37866 ft 453 kts 355°
2026-05-05 07:49 47.70826 -1.14439 37871 ft 452 kts 355°
2026-05-05 07:49 47.77742 -1.15404 37873 ft 452 kts 355°
2026-05-05 07:50 47.84424 -1.16339 37863 ft 453 kts 355°
2026-05-05 07:50 47.91285 -1.17300 37873 ft 453 kts 355°
2026-05-05 07:51 47.97922 -1.18233 37868 ft 452 kts 355°
2026-05-05 07:51 48.04747 -1.19197 37853 ft 453 kts 355°
2026-05-05 07:52 48.11438 -1.20142 37846 ft 452 kts 355°
2026-05-05 07:52 48.18105 -1.21085 37851 ft 452 kts 355°
2026-05-05 07:53 48.24641 -1.22014 37867 ft 451 kts 355°
2026-05-05 07:53 48.31196 -1.22949 37868 ft 451 kts 355°
2026-05-05 07:54 48.37859 -1.23902 37874 ft 452 kts 355°
2026-05-05 07:54 48.44620 -1.24869 37877 ft 451 kts 355°
2026-05-05 07:55 48.51413 -1.25843 37875 ft 452 kts 355°
2026-05-05 07:55 48.58091 -1.26804 37880 ft 452 kts 355°
2026-05-05 07:56 48.64606 -1.27747 37880 ft 450 kts 355°
2026-05-05 07:56 48.71251 -1.28710 37887 ft 451 kts 355°
2026-05-05 07:57 48.78154 -1.29710 37886 ft 450 kts 355°
2026-05-05 07:57 48.84925 -1.30695 37890 ft 450 kts 355°
2026-05-05 07:58 48.91891 -1.31711 37895 ft 450 kts 355°
2026-05-05 07:58 48.98660 -1.32703 37904 ft 450 kts 355°
2026-05-05 07:59 49.05431 -1.33698 37911 ft 449 kts 355°
2026-05-05 07:59 49.11971 -1.34659 37913 ft 449 kts 355°
2026-05-05 08:00 49.18370 -1.35601 37919 ft 450 kts 354°
2026-05-05 08:00 49.24968 -1.36577 37922 ft 449 kts 354°
2026-05-05 08:01 49.31616 -1.37563 37931 ft 449 kts 354°
2026-05-05 08:01 49.38197 -1.38543 37928 ft 449 kts 354°
2026-05-05 08:02 49.44658 -1.39505 37931 ft 448 kts 354°
2026-05-05 08:02 49.50891 -1.40435 37939 ft 448 kts 354°
2026-05-05 08:03 49.57185 -1.41320 37945 ft 448 kts 357°
2026-05-05 08:03 49.63565 -1.41330 37954 ft 447 kts
2026-05-05 08:04 49.69847 -1.40770 37955 ft 447 kts
2026-05-05 08:04 49.76081 -1.40192 37956 ft 446 kts
2026-05-05 08:05 49.82375 -1.39625 37954 ft 447 kts
2026-05-05 08:05 49.88895 -1.39043 37957 ft 446 kts
2026-05-05 08:06 49.95520 -1.38451 37958 ft 446 kts
2026-05-05 08:06 50.02220 -1.37519 37968 ft 446 kts
2026-05-05 08:07 50.08757 -1.35920 37958 ft 445 kts
2026-05-05 08:07 50.14932 -1.34360 37973 ft 445 kts
2026-05-05 08:08 50.21053 -1.32826 37968 ft 445 kts
2026-05-05 08:08 50.27159 -1.31296 37964 ft 445 kts
2026-05-05 08:09 50.33291 -1.29757 37972 ft 445 kts
2026-05-05 08:09 50.39431 -1.28213 37973 ft 444 kts
2026-05-05 08:10 50.45736 -1.26685 37983 ft 444 kts
2026-05-05 08:10 50.52212 -1.26086 37978 ft 443 kts 359°
2026-05-05 08:11 50.58681 -1.26714 37979 ft 442 kts 354°
2026-05-05 08:11 50.65143 -1.27740 37978 ft 442 kts 354°
2026-05-05 08:12 50.71486 -1.28747 37990 ft 441 kts 354°
2026-05-05 08:12 50.77911 -1.29754 37980 ft 441 kts 354°
2026-05-05 08:13 50.84393 -1.30765 37980 ft 441 kts 354°
2026-05-05 08:13 50.90955 -1.31792 37993 ft 440 kts 354°
2026-05-05 08:14 50.97455 -1.32811 38007 ft 440 kts 354°
2026-05-05 08:14 51.03969 -1.33835 37995 ft 440 kts 354°
2026-05-05 08:15 51.10568 -1.34874 37989 ft 439 kts 354°
2026-05-05 08:15 51.16712 -1.35845 37993 ft 439 kts 354°
2026-05-05 08:16 51.23115 -1.36860 37994 ft 439 kts 354°
2026-05-05 08:16 51.29823 -1.37926 37990 ft 439 kts 354°
2026-05-05 08:17 51.36417 -1.38978 37987 ft 439 kts 354°
2026-05-05 08:17 51.43020 -1.40034 37984 ft 439 kts 354°
2026-05-05 08:18 51.49768 -1.41115 37986 ft 439 kts 354°
2026-05-05 08:18 51.56220 -1.42153 37992 ft 439 kts 354°
2026-05-05 08:19 51.62708 -1.43199 37997 ft 439 kts 354°
2026-05-05 08:19 51.69031 -1.44222 38002 ft 439 kts 354°
2026-05-05 08:20 51.75321 -1.45242 38004 ft 439 kts 354°
2026-05-05 08:20 51.81737 -1.46286 38004 ft 439 kts 354°
2026-05-05 08:21 51.88000 -1.47307 38003 ft 439 kts 354°
2026-05-05 08:21 51.94292 -1.48336 38001 ft 439 kts 354°
2026-05-05 08:22 52.00433 -1.49344 37997 ft 439 kts 354°
2026-05-05 08:22 52.06633 -1.50363 37993 ft 438 kts 354°
2026-05-05 08:23 52.12727 -1.51368 37996 ft 438 kts 354°
2026-05-05 08:23 52.18860 -1.52384 38002 ft 438 kts 354°
2026-05-05 08:24 52.24871 -1.53381 38003 ft 438 kts 354°
2026-05-05 08:24 52.30979 -1.54395 37906 ft 437 kts 354°
2026-05-05 08:25 52.37078 -1.55411 37987 ft 438 kts 354°
2026-05-05 08:25 52.43230 -1.56441 38006 ft 437 kts 354°
2026-05-05 08:26 52.49274 -1.57455 38005 ft 437 kts 354°
2026-05-05 08:26 52.55443 -1.58493 38007 ft 436 kts 354°
2026-05-05 08:27 52.61497 -1.59513 38010 ft 436 kts 354°
2026-05-05 08:27 52.67728 -1.60565 38009 ft 436 kts 354°
2026-05-05 08:28 52.73816 -1.61598 38002 ft 436 kts 354°
2026-05-05 08:28 52.80047 -1.62657 38018 ft 436 kts 354°
2026-05-05 08:29 52.86169 -1.63702 38017 ft 435 kts 354°
2026-05-05 08:30 52.95384 -1.65278 38023 ft 435 kts 353°
2026-05-05 08:30 53.01600 -1.66463 38009 ft 434 kts 350°
2026-05-05 08:31 53.07798 -1.68722 38006 ft 434 kts 343°
2026-05-05 08:31 53.13750 -1.72110 38004 ft 433 kts 339°
2026-05-05 08:32 53.19656 -1.75805 38005 ft 433 kts 339°
2026-05-05 08:32 53.25614 -1.79536 38010 ft 433 kts 339°
2026-05-05 08:33 53.31554 -1.83252 38010 ft 432 kts 339°
2026-05-05 08:33 53.37500 -1.86978 38007 ft 432 kts 339°
2026-05-05 08:34 53.43415 -1.90693 38010 ft 431 kts 339°
2026-05-05 08:34 53.49161 -1.94311 38012 ft 430 kts 338°
2026-05-05 08:35 53.54833 -1.97892 38010 ft 429 kts 338°
2026-05-05 08:35 53.60537 -2.01508 38010 ft 429 kts 338°
2026-05-05 08:36 53.66307 -2.05177 38013 ft 428 kts 338°
2026-05-05 08:36 53.71930 -2.08763 38016 ft 428 kts 338°
2026-05-05 08:37 53.77477 -2.12393 38012 ft 428 kts 336°
2026-05-05 08:37 53.83016 -2.16202 38014 ft 428 kts 336°
2026-05-05 08:38 53.88693 -2.20093 38011 ft 427 kts 336°
2026-05-05 08:38 53.94483 -2.24061 38009 ft 427 kts 336°
2026-05-05 08:39 54.00189 -2.28025 37999 ft 426 kts 334°
2026-05-05 08:39 54.05931 -2.32958 37989 ft 425 kts 330°
2026-05-05 08:40 54.11377 -2.38073 37985 ft 424 kts 329°
2026-05-05 08:40 54.16537 -2.42937 37747 ft 424 kts 329°
2026-05-05 08:40 54.19183 -2.45431 37491 ft 421 kts 329°
2026-05-05 08:41 54.21921 -2.48014 37220 ft 419 kts 329°
2026-05-05 08:41 54.24787 -2.50719 36941 ft 416 kts 329°
2026-05-05 08:41 54.27594 -2.53374 36673 ft 414 kts 329°
2026-05-05 08:41 54.30378 -2.56010 36443 ft 413 kts 329°
2026-05-05 08:42 54.33142 -2.58632 36250 ft 413 kts 329°
2026-05-05 08:42 54.35840 -2.61194 35949 ft 413 kts 329°
2026-05-05 08:42 54.38608 -2.63828 35505 ft 414 kts 329°
2026-05-05 08:42 54.41336 -2.66428 34932 ft 416 kts 328°
2026-05-05 08:43 54.43860 -2.68838 34247 ft 418 kts 328°
2026-05-05 08:43 54.46364 -2.71233 33582 ft 419 kts 328°
2026-05-05 08:43 54.48899 -2.73660 32920 ft 419 kts 328°
2026-05-05 08:43 54.51442 -2.76098 32252 ft 420 kts 328°
2026-05-05 08:44 54.53973 -2.78525 31587 ft 419 kts 328°
2026-05-05 08:44 54.56500 -2.80953 30913 ft 420 kts 328°
2026-05-05 08:44 54.59037 -2.83397 30273 ft 418 kts 328°
2026-05-05 08:44 54.61537 -2.85805 29829 ft 411 kts 328°
2026-05-05 08:45 54.64009 -2.88191 29385 ft 405 kts 328°
2026-05-05 08:45 54.66441 -2.90542 28943 ft 399 kts 328°
2026-05-05 08:45 54.68854 -2.92881 28501 ft 393 kts 328°
2026-05-05 08:45 54.71230 -2.95184 28057 ft 388 kts 328°
2026-05-05 08:46 54.73689 -2.97572 27597 ft 383 kts 328°
2026-05-05 08:46 54.76254 -3.00067 27112 ft 377 kts 328°
2026-05-05 08:46 54.78766 -3.02513 26634 ft 373 kts 328°
2026-05-05 08:46 54.81206 -3.04891 26165 ft 368 kts 327°
2026-05-05 08:47 54.83645 -3.07274 25836 ft 374 kts 327°
2026-05-05 08:47 54.86197 -3.09776 25927 ft 381 kts 328°
2026-05-05 08:47 54.88701 -3.12226 26046 ft 382 kts 327°
2026-05-05 08:47 54.91202 -3.14679 26005 ft 382 kts 327°
2026-05-05 08:48 54.93777 -3.17210 25452 ft 380 kts 328°
2026-05-05 08:48 54.96347 -3.19738 24930 ft 376 kts 328°
2026-05-05 08:48 54.98845 -3.22200 24398 ft 372 kts 328°
2026-05-05 08:48 55.01362 -3.24687 23862 ft 369 kts 328°
2026-05-05 08:49 55.03875 -3.27171 23333 ft 366 kts 328°
2026-05-05 08:49 55.06337 -3.29607 22820 ft 363 kts 328°
2026-05-05 08:49 55.08856 -3.32102 22300 ft 360 kts 328°
2026-05-05 08:49 55.11285 -3.34511 21811 ft 357 kts 328°
2026-05-05 08:50 55.13678 -3.36891 21329 ft 354 kts 328°
2026-05-05 08:50 55.16169 -3.39369 20829 ft 351 kts 328°
2026-05-05 08:50 55.18627 -3.41820 20341 ft 348 kts 328°
2026-05-05 08:50 55.21039 -3.44226 20027 ft 341 kts 328°
2026-05-05 08:51 55.23314 -3.46495 19765 ft 331 kts 328°
2026-05-05 08:51 55.25589 -3.48771 19326 ft 326 kts 328°
2026-05-05 08:51 55.27874 -3.51060 18881 ft 321 kts 328°
2026-05-05 08:51 55.29945 -3.53138 18488 ft 316 kts 328°
2026-05-05 08:52 55.32088 -3.55290 18090 ft 311 kts 328°
2026-05-05 08:52 55.34145 -3.57359 17672 ft 307 kts 328°
2026-05-05 08:52 55.36251 -3.59480 17209 ft 305 kts 328°
2026-05-05 08:52 55.38298 -3.61545 16757 ft 302 kts 328°
2026-05-05 08:53 55.40384 -3.63651 16303 ft 300 kts 328°
2026-05-05 08:53 55.42353 -3.65643 15860 ft 298 kts 328°
2026-05-05 08:53 55.44392 -3.67705 15406 ft 296 kts 328°
2026-05-05 08:53 55.46384 -3.69722 14977 ft 294 kts 328°
2026-05-05 08:54 55.48331 -3.71696 14565 ft 290 kts 328°
2026-05-05 08:54 55.50275 -3.73669 14026 ft 287 kts 328°
2026-05-05 08:54 55.52159 -3.75584 13480 ft 284 kts 328°
2026-05-05 08:54 55.53966 -3.77423 12947 ft 282 kts 328°
2026-05-05 08:55 55.55771 -3.79263 12469 ft 277 kts 328°
2026-05-05 08:55 55.57499 -3.81025 12022 ft 272 kts 328°
2026-05-05 08:55 55.59239 -3.82802 11572 ft 267 kts 328°
2026-05-05 08:55 55.60977 -3.84578 11125 ft 262 kts 328°
2026-05-05 08:56 55.62677 -3.86318 10685 ft 257 kts 329°
2026-05-05 08:56 55.64335 -3.88017 10253 ft 252 kts 329°
2026-05-05 08:56 55.65920 -3.89643 9842 ft 248 kts 329°
2026-05-05 08:56 55.67517 -3.91282 9394 ft 246 kts 329°
2026-05-05 08:57 55.69119 -3.92924 8923 ft 244 kts 330°
2026-05-05 08:57 55.70748 -3.94333 8445 ft 243 kts 340°
2026-05-05 08:57 55.72636 -3.94857 7967 ft 244 kts 356°
2026-05-05 08:57 55.74578 -3.94918 7571 ft 243 kts 359°
2026-05-05 08:58 55.76450 -3.94935 7190 ft 243 kts 359°
2026-05-05 08:58 55.78278 -3.94961 6822 ft 242 kts 359°
2026-05-05 08:58 55.80097 -3.95004 6468 ft 240 kts 359°
2026-05-05 08:58 55.81947 -3.95065 6105 ft 239 kts 359°
2026-05-05 08:59 55.83770 -3.95134 5758 ft 238 kts 359°
2026-05-05 08:59 55.85561 -3.95207 5416 ft 237 kts 359°
2026-05-05 08:59 55.87331 -3.95283 5082 ft 235 kts 359°
2026-05-05 08:59 55.89144 -3.95370 4746 ft 232 kts 358°
2026-05-05 09:00 55.90817 -3.96151 4380 ft 234 kts 330°
2026-05-05 09:00 55.92184 -3.98030 4053 ft 234 kts 321°
2026-05-05 09:00 55.93502 -4.00151 3690 ft 234 kts 319°
2026-05-05 09:00 55.94897 -4.02451 3315 ft 234 kts 319°
2026-05-05 09:01 55.96285 -4.04754 2979 ft 232 kts 319°
2026-05-05 09:01 55.97676 -4.07131 2930 ft 234 kts 313°
2026-05-05 09:01 55.98458 -4.10041 2920 ft 226 kts 284°
2026-05-05 09:01 55.98732 -4.12932 2915 ft 210 kts 280°
2026-05-05 09:02 55.98927 -4.15699 2909 ft 194 kts 279°
2026-05-05 09:02 55.99093 -4.18256 2919 ft 175 kts 279°
2026-05-05 09:02 55.99117 -4.20540 2947 ft 170 kts 255°
2026-05-05 09:02 55.98424 -4.22496 2946 ft 172 kts 230°
2026-05-05 09:03 55.97471 -4.24268 2754 ft 172 kts 225°
2026-05-05 09:03 55.96518 -4.25956 2490 ft 170 kts 226°
2026-05-05 09:03 55.95613 -4.27597 2238 ft 169 kts 227°
2026-05-05 09:03 55.94659 -4.29368 1973 ft 169 kts 227°
2026-05-05 09:04 55.93693 -4.31177 1703 ft 168 kts 227°
2026-05-05 09:04 55.92755 -4.32931 1444 ft 166 kts 228°
2026-05-05 09:04 55.91840 -4.34641 1192 ft 159 kts 228°
2026-05-05 09:04 55.90992 -4.36224 942 ft 143 kts 228°
2026-05-05 09:05 55.90219 -4.37667 711 ft 133 kts 229°
2026-05-05 09:05 55.89511 -4.38992 524 ft 131 kts 229°
2026-05-05 09:05 55.88798 -4.40330 336 ft 129 kts 229°
2026-05-05 09:05 55.88097 -4.41634 124 ft 128 kts 228°
2026-05-05 09:06 55.87417 -4.42910 19 ft 114 kts 229°
2026-05-05 09:06 55.86955 -4.43779 16 ft 54 kts 225°
2026-05-05 09:06 55.86766 -4.44132 16 ft 19 kts 226°
2026-05-05 09:06 55.86682 -4.44276 16 ft 11 kts 202°
2026-05-05 09:07 55.86618 -4.44210 17 ft 8 kts 101°
2026-05-05 09:07 55.86618 -4.44080 18 ft 9 kts 90°
2026-05-05 09:07 55.86627 -4.43956 19 ft 8 kts 58°
2026-05-05 09:07 55.86678 -4.43856 19 ft 10 kts 47°
2026-05-05 09:08 55.86730 -4.43741 19 ft 7 kts 67°
2026-05-05 09:08 55.86729 -4.43626 19 ft 5 kts 140°
2026-05-05 09:08 55.86686 -4.43597 19 ft 3 kts 163°
2026-05-05 09:08 55.86658 -4.43608 20 ft 4 kts 211°
2026-05-05 09:09 55.86632 -4.43670 19 ft 2 kts 242°
2026-05-05 09:09 55.86627 -4.43688 19 ft 1 kts 242°
2026-05-05 09:09 55.86624 -4.43697 19 ft 0 kts 242°